Theta_e
321 319 320 321 315 315 320 324 322 323 323 326 325 326 329 331 330 328 334 333 330 325 328 329 332 332 327 319 312 311 312 312 311 311 313 313 314 319 323 328 329 330 329 326 327 316 314 313 312
321 318 320 321 316 318 318 316 325 321 328 328 327 329 330 332 334 335 335 333 325 322 328 330 332 331 328 318 311 311 313 321 318 313 316 319 328 318 329 329 329 328 328 326 318 312 312 312 312
320 319 320 313 312 317 316 319 321 324 326 322 330 330 331 334 335 334 335 331 323 325 330 327 328 328 329 320 313 311 320 331 329 319 312 316 329 327 327 330 330 326 328 327 318 312 313 312 313
318 319 317 315 318 316 316 319 321 325 323 325 330 330 332 333 334 334 334 330 323 324 324 322 322 329 331 320 314 311 314 328 330 322 317 316 327 328 319 319 312 312 312 310 311 311 312 312 313
318 319 314 315 317 314 313 321 320 317 320 326 326 331 332 335 334 334 334 330 324 322 321 322 320 330 331 320 314 311 310 315 323 326 319 315 327 328 322 316 311 311 311 311 312 312 312 312 314
318 316 315 317 317 314 318 321 318 318 322 328 331 332 333 335 334 333 333 331 331 323 318 320 322 330 331 319 314 312 311 311 314 315 314 317 326 324 318 315 313 312 312 312 312 313 313 313 314
316 313 315 315 315 319 319 319 316 319 324 326 331 329 332 334 335 333 332 331 331 320 318 321 324 331 330 319 314 313 312 311 311 311 315 320 325 320 315 314 313 313 313 313 313 314 314 314 314
317 312 315 315 313 320 316 319 317 321 319 328 328 327 332 335 335 334 333 333 332 324 321 320 328 329 329 318 315 314 313 312 311 311 313 315 316 315 315 316 315 315 314 315 315 316 316 315 315
316 313 314 316 314 315 316 315 316 319 325 325 326 327 328 335 334 333 331 331 331 326 322 318 325 329 328 317 316 316 315 314 314 313 313 314 315 316 315 316 318 318 317 317 317 317 317 317 317
314 314 316 315 314 314 315 316 316 321 325 326 327 328 331 334 333 331 329 324 320 320 315 315 321 328 326 317 317 318 317 317 316 316 315 316 317 318 318 318 319 320 320 319 319 319 318 317 317
314 315 314 316 316 316 315 314 318 320 322 324 325 326 333 334 332 331 330 327 319 316 313 312 315 321 319 318 318 319 319 319 320 319 318 318 319 319 319 320 321 321 321 321 321 320 320 319 318
316 314 314 314 314 315 314 316 316 320 319 321 322 321 331 333 331 330 331 330 324 316 316 315 315 317 318 319 320 319 320 321 321 321 320 320 320 320 320 321 321 321 322 322 322 321 321 320 320
315 314 314 314 314 315 315 314 315 318 316 317 323 326 329 332 331 331 330 331 328 317 318 317 317 317 318 320 320 320 320 321 321 321 321 321 321 321 322 322 322 322 322 322 322 322 321 320 320
315 314 315 314 313 315 314 313 315 316 316 320 323 326 329 331 331 331 332 332 328 318 318 318 317 317 317 318 319 320 320 321 322 322 323 322 322 323 323 323 323 323 323 323 323 323 323 323 322
314 314 311 312 314 313 313 313 312 314 317 324 326 326 328 330 331 330 331 332 331 321 318 319 320 322 323 321 322 322 323 324 324 325 324 324 325 324 324 324 324 324 323 323 324 324 324 322 321
313 311 312 311 312 312 313 314 312 314 318 326 328 328 329 330 330 330 331 331 331 331 324 324 326 327 326 325 325 325 326 325 324 326 327 327 327 327 324 325 324 324 324 325 324 322 321 321 321
322 318 310 311 310 310 311 313 311 313 320 326 328 328 329 330 330 330 330 331 332 331 331 329 328 328 327 326 326 327 325 325 326 326 326 325 325 325 325 325 324 324 323 322 322 321 321 321 321
325 319 311 311 311 310 310 310 309 310 322 325 327 328 329 329 328 329 329 330 331 331 332 331 330 330 330 329 329 329 328 327 327 326 325 325 325 324 324 323 323 323 323 322 322 321 321 322 320
323 317 313 310 310 311 310 310 310 309 311 322 326 328 329 329 327 329 329 330 331 332 332 331 332 331 331 331 331 329 328 327 326 326 326 325 325 324 323 323 323 323 322 322 322 321 320 320 319
313 322 318 310 309 310 310 311 308 306 308 313 320 325 327 327 326 326 328 330 330 330 329 330 331 332 332 332 331 331 329 328 327 325 325 325 324 324 323 323 323 322 322 321 320 319 319 319 318
316 314 312 312 309 308 309 310 309 307 308 310 311 316 321 323 322 323 325 327 328 328 329 330 330 331 332 332 332 330 329 329 327 325 324 325 324 323 323 323 323 323 321 320 319 319 319 319 318
314 309 310 309 311 313 307 312 308 306 306 306 310 311 312 313 317 320 322 325 327 328 329 330 331 331 331 332 332 331 328 327 327 325 324 324 324 323 323 322 322 321 320 319 319 320 320 319 317
316 308 309 310 309 309 308 308 310 305 306 305 307 311 312 312 311 312 315 321 323 326 327 329 329 329 330 332 332 330 329 327 327 325 323 323 323 323 322 321 320 319 319 319 320 319 317 310 305
308 310 309 308 307 310 310 307 308 306 305 306 308 311 313 313 311 311 313 318 321 323 326 328 329 328 329 330 331 330 328 328 327 325 323 323 322 322 320 319 318 318 318 319 317 311 305 301 300
311 310 313 313 309 312 304 305 311 307 303 306 309 313 313 312 311 311 313 316 319 322 326 327 328 328 329 329 330 330 327 328 328 325 323 322 321 320 319 318 317 317 312 308 304 301 299 298 297
310 312 311 313 311 311 303 307 309 305 307 308 308 310 311 312 312 311 312 314 315 316 320 323 325 326 327 327 329 330 327 327 327 325 323 321 319 317 317 316 311 308 303 301 300 298 297 296 296
310 315 309 307 299 306 305 304 304 304 303 306 307 307 310 311 312 312 312 312 312 312 312 312 311 311 312 318 326 330 329 327 326 323 322 319 317 317 316 310 305 301 300 298 297 296 296 295 294
310 310 312 310 308 308 305 304 308 306 307 306 306 308 310 310 310 311 310 310 311 311 311 311 311 311 310 310 313 327 330 325 325 322 322 315 318 315 309 303 300 299 298 297 296 296 295 294 294
311 312 310 310 308 310 309 308 301 306 306 307 307 310 310 310 310 309 311 311 311 311 311 311 311 311 310 311 313 323 327 325 324 322 320 318 314 308 302 300 299 298 296 296 295 295 294 294 294
311 312 313 314 312 304 307 309 304 302 302 305 305 308 309 310 309 309 310 310 311 311 310 310 311 311 311 313 319 324 323 323 322 320 319 311 306 301 299 298 297 296 296 295 295 294 294 293 293
Wind_Speed
4 6 1 1 4 5 1 3 1 3 1 2 6 5 6 6 2 3 17 16 19 18 16 13 9 6 8 9 9 11 11 12 13 13 13 12 11 11 13 16 17 17 16 14 15 14 13 13 13
4 5 1 4 5 3 4 3 4 4 10 15 12 7 5 2 4 15 19 19 19 18 15 13 12 9 9 9 11 13 13 12 13 14 15 16 18 14 17 17 16 14 14 13 12 13 12 13 14
5 4 1 4 4 3 4 4 5 7 13 1 5 7 3 5 8 24 14 22 20 17 17 14 11 10 10 10 10 11 13 14 10 12 13 15 18 15 15 15 15 13 13 11 9 11 11 13 14
4 1 4 4 3 4 4 3 5 12 2 2 11 7 5 1 20 13 20 20 18 16 15 13 12 11 10 9 9 10 13 15 13 12 13 16 17 14 12 10 10 11 11 11 10 11 13 13 14
4 0 3 3 2 2 3 5 11 4 5 6 3 4 5 16 9 15 19 18 15 14 13 13 13 12 10 8 8 10 10 12 14 11 12 16 14 12 10 10 11 10 11 10 10 12 13 13 13
1 2 3 2 3 3 2 8 6 3 6 8 7 8 7 12 12 18 19 17 12 12 13 14 14 13 11 8 8 10 11 11 12 10 12 13 14 9 10 10 9 10 10 11 11 12 12 12 12
3 3 3 4 2 1 4 10 4 5 6 5 13 4 6 14 17 21 18 15 13 14 15 15 15 14 12 9 9 9 10 11 10 10 10 13 13 10 10 10 10 10 10 10 10 11 11 11 12
3 5 3 2 4 4 5 9 4 7 3 11 11 6 7 22 24 22 19 17 15 15 15 15 17 16 14 11 10 10 11 11 11 10 10 9 9 9 9 10 11 10 9 9 9 11 12 11 11
4 4 2 4 5 5 8 5 6 6 12 6 8 4 7 27 27 23 21 19 18 16 16 16 17 17 14 12 11 10 10 10 10 10 9 8 7 7 7 9 9 10 9 8 9 10 11 11 11
3 3 6 5 4 4 10 8 16 7 10 4 7 6 20 30 28 27 25 22 20 19 19 18 18 17 14 13 12 10 9 10 10 9 9 7 6 6 6 7 8 7 7 8 8 9 9 9 10
3 2 3 4 7 5 8 8 12 12 3 12 16 17 30 32 29 28 26 21 21 20 19 19 18 17 14 12 12 11 9 8 8 8 7 6 5 5 5 5 5 5 6 6 6 7 7 8 8
3 2 9 7 3 3 5 9 8 16 7 15 15 19 33 34 33 31 28 25 24 22 20 19 19 18 15 13 12 12 10 8 7 6 6 5 4 3 4 3 3 4 4 4 5 5 6 7 8
3 6 11 10 11 4 7 6 5 16 7 8 17 25 33 34 33 29 26 23 23 24 22 21 19 17 16 15 14 12 11 10 9 8 6 5 3 2 1 1 1 2 3 4 4 6 7 7 8
5 8 18 11 5 3 4 2 5 9 8 11 20 29 34 34 33 30 28 25 24 23 22 22 20 18 17 16 14 13 12 11 10 8 7 6 4 3 2 2 2 3 4 5 5 6 6 7 8
4 4 8 10 5 1 4 1 6 6 12 16 24 27 32 33 32 31 28 26 24 23 22 21 20 19 17 17 15 14 13 12 11 10 8 8 6 6 5 5 4 5 5 6 6 7 8 11 13
2 3 4 4 5 4 7 8 4 9 18 21 25 27 32 33 33 31 29 27 24 22 24 21 20 20 19 18 16 15 15 15 13 9 8 6 5 6 7 6 5 5 6 7 7 9 11 14 17
2 6 2 7 4 2 5 6 4 13 20 24 27 28 31 33 33 33 30 28 26 23 22 22 21 20 19 18 17 14 14 12 11 10 10 9 8 7 6 5 5 6 8 10 11 12 14 15 17
8 8 4 5 4 0 4 7 3 12 19 26 28 29 32 32 33 32 31 30 27 25 23 22 20 19 18 18 17 16 16 16 15 13 12 11 11 9 9 7 8 9 11 12 14 15 16 18 19
13 5 6 2 3 4 6 7 10 8 13 17 26 30 31 32 29 31 31 30 29 28 27 26 24 21 22 22 22 22 22 19 16 16 15 13 11 11 9 10 11 12 13 15 15 16 17 16 19
1 8 10 4 4 2 3 12 6 7 12 26 30 30 32 31 30 30 33 33 33 31 29 29 28 27 25 24 22 22 22 22 17 16 16 14 13 13 13 13 14 15 15 16 15 16 16 15 16
6 7 6 5 1 1 2 7 5 6 15 18 27 28 30 33 32 31 33 35 35 35 34 32 30 30 30 28 25 24 23 22 19 16 17 18 17 16 16 16 15 16 16 16 14 12 12 14 17
7 11 6 4 6 6 1 6 6 6 9 10 28 28 32 33 34 34 34 35 36 35 33 34 33 32 33 32 29 27 27 24 22 17 19 19 19 19 18 17 17 17 15 14 12 13 13 16 18
5 5 5 2 2 3 4 2 7 2 9 7 21 32 34 36 36 35 36 35 34 35 34 34 32 31 31 32 31 28 26 26 23 21 20 21 20 18 18 16 15 13 11 10 11 13 15 12 12
9 8 4 3 3 3 11 7 5 9 7 7 21 34 37 38 35 34 34 34 34 34 34 34 34 32 32 33 33 30 30 31 27 21 20 22 21 20 18 15 12 11 12 12 13 9 9 11 13
15 10 3 5 2 11 0 5 16 5 9 8 19 39 40 39 34 33 37 40 38 36 34 34 34 34 34 35 35 33 31 31 29 23 21 22 22 19 17 14 14 13 10 7 6 7 9 11 13
18 13 6 8 5 6 3 8 7 10 15 15 20 21 27 39 38 37 39 42 38 35 34 34 34 34 35 35 36 36 33 33 29 24 22 21 20 18 17 14 12 10 8 6 7 9 10 12 12
5 16 2 4 2 3 5 8 7 7 9 11 20 19 27 29 39 43 42 41 37 36 34 32 32 34 36 38 36 37 36 34 29 26 23 22 21 18 16 15 12 9 7 6 7 8 10 11 14
2 5 7 1 2 4 4 5 7 3 11 10 12 26 32 29 33 42 39 38 36 33 32 31 31 31 31 34 36 35 37 33 29 24 23 22 21 19 18 15 11 8 7 6 7 9 10 13 15
6 5 4 2 3 4 0 6 7 11 11 12 16 29 33 32 31 38 39 35 32 30 30 29 28 28 28 29 31 34 35 33 30 26 24 22 22 21 19 15 11 9 8 7 7 9 12 14 16
9 13 15 7 11 1 1 9 2 8 8 10 17 19 22 24 27 31 35 32 31 29 28 27 26 26 25 23 27 33 35 32 29 26 25 25 24 21 17 14 11 8 7 7 8 11 12 15 16
Wind_Direction
301 308 314 147 54 64 241 233 305 132 168 253 137 149 148 77 146 179 145 155 159 158 153 147 147 124 101 86 82 88 89 88 93 98 105 111 116 115 105 96 94 94 91 80 77 75 68 67 63
297 298 182 95 85 64 270 267 196 183 136 108 90 82 57 73 107 139 146 153 158 161 155 151 142 131 108 92 85 92 92 89 90 89 103 100 90 95 101 95 96 94 93 84 70 63 60 59 58
300 287 166 92 110 173 221 215 178 144 148 135 107 80 80 125 136 145 151 153 158 156 151 149 148 141 124 98 95 102 104 100 93 92 99 99 97 101 97 99 93 95 88 85 68 62 55 51 49
306 268 55 84 193 243 204 198 161 138 206 144 122 71 86 128 144 146 151 154 158 156 155 154 154 150 133 110 109 117 119 121 106 94 94 110 106 107 90 96 80 72 81 67 59 58 52 51 48
274 19 62 83 255 272 257 165 157 141 142 140 139 145 97 141 147 147 149 151 157 159 164 163 162 156 140 110 103 104 108 125 118 103 99 111 96 102 80 76 74 70 73 73 64 51 48 50 47
273 70 69 171 258 287 248 168 169 142 148 144 117 113 137 174 166 156 152 150 157 168 169 164 160 160 147 125 113 118 119 127 127 115 99 106 104 100 81 75 77 78 73 67 58 49 47 52 50
105 82 189 176 243 289 182 166 168 162 153 192 147 100 154 175 173 158 158 167 171 168 171 165 164 159 151 136 126 120 115 117 114 115 111 99 106 97 80 76 76 78 72 63 51 48 46 49 49
66 91 109 254 189 237 179 163 193 167 168 146 160 171 176 175 165 160 165 177 180 176 180 173 169 164 159 146 139 129 118 121 120 120 116 108 106 97 83 76 73 69 66 63 55 46 44 45 45
16 67 194 224 157 235 172 144 153 168 153 163 195 180 182 166 164 165 165 169 177 183 188 179 173 170 166 156 147 138 133 124 122 118 120 120 117 104 86 79 74 68 69 69 65 55 45 42 43
139 115 215 209 210 222 188 176 160 154 164 202 189 187 166 167 169 169 168 168 175 184 188 182 179 175 172 163 157 152 146 144 136 132 123 117 112 109 99 87 77 71 68 64 61 54 51 46 39
82 204 344 286 251 239 196 184 173 150 213 209 193 170 170 172 174 178 175 180 179 180 185 182 183 183 177 171 169 163 165 160 147 134 129 130 119 114 109 94 82 74 62 56 51 47 43 38 38
68 256 312 292 321 194 193 181 180 179 204 219 209 189 176 181 180 185 185 181 183 182 183 182 185 188 185 181 183 180 177 173 161 158 157 147 142 127 105 86 74 56 48 40 35 29 26 28 28
89 281 304 306 304 265 204 199 196 204 216 211 192 188 185 188 188 187 189 185 188 185 186 186 187 189 193 192 194 193 190 186 190 188 184 182 177 162 115 54 29 17 7 3 4 9 14 19 12
198 276 287 285 303 215 177 166 192 203 214 192 189 191 193 194 193 191 193 191 192 192 189 192 191 192 198 201 202 201 204 205 203 204 207 208 212 217 238 271 304 317 331 340 344 345 344 343 343
321 301 288 247 186 179 144 40 230 202 195 184 188 193 196 199 199 199 195 199 197 198 195 201 199 199 205 206 207 210 211 217 221 220 222 220 228 238 250 267 282 305 325 330 339 350 349 337 328
58 279 255 299 183 151 146 251 244 199 192 190 195 192 198 202 207 205 203 203 206 205 206 206 211 212 213 217 220 219 218 226 227 219 229 241 259 268 255 269 292 309 320 333 341 326 320 319 320
227 243 275 314 248 130 141 248 267 202 196 199 198 197 201 209 211 214 210 211 212 211 211 213 214 218 221 217 220 221 224 226 220 228 239 245 257 263 284 301 309 316 323 319 312 311 309 309 314
176 213 251 226 222 266 157 252 286 209 202 208 203 203 207 215 220 217 215 216 218 219 220 222 222 217 220 221 223 226 222 227 233 239 243 248 264 264 272 283 285 292 290 299 303 302 301 318 316
204 179 230 245 244 187 206 235 243 212 218 220 219 210 214 220 224 224 224 220 223 224 224 225 226 223 221 220 221 222 225 233 240 245 244 252 260 268 271 275 279 283 289 295 301 302 306 314 312
112 217 228 294 339 256 191 248 248 200 223 222 222 218 219 223 226 225 223 224 225 227 225 227 228 231 230 230 232 231 230 237 248 246 251 255 257 258 260 267 279 284 285 294 297 301 306 312 316
202 217 234 233 124 130 340 286 233 226 229 233 234 236 230 227 226 224 221 221 224 225 226 227 231 236 234 234 232 236 234 236 242 242 239 243 247 254 260 266 269 274 284 286 288 295 301 308 306
194 194 209 157 157 230 348 266 261 217 232 211 229 229 235 235 232 229 226 223 223 226 227 232 235 235 234 232 233 232 237 239 245 243 240 242 246 250 256 261 266 271 274 275 276 287 292 294 303
191 152 155 158 136 104 231 239 238 122 238 233 234 229 232 236 232 232 228 228 228 228 229 233 233 232 231 232 231 235 234 239 243 250 240 243 246 250 256 259 262 264 262 258 264 273 292 302 310
145 91 18 48 119 247 211 198 245 206 196 225 229 231 231 234 233 229 227 226 226 227 227 228 229 230 229 230 231 230 233 238 238 246 240 242 246 248 251 252 245 242 250 254 266 276 297 312 317
167 150 173 227 184 234 8 163 239 225 220 213 218 228 231 232 230 224 222 223 224 225 224 226 229 230 229 230 231 229 233 239 242 245 243 241 243 241 241 230 241 242 234 238 264 292 304 310 315
193 177 174 188 207 224 108 237 249 225 238 239 246 243 243 240 233 227 224 223 225 225 226 226 230 232 232 231 229 227 231 233 236 242 242 241 232 226 225 226 215 210 220 249 279 295 304 309 315
170 198 238 81 28 77 203 280 294 259 273 260 245 240 238 237 231 228 221 221 222 223 227 230 235 237 235 232 227 224 225 229 227 233 235 225 218 229 220 208 206 214 232 261 283 298 307 315 322
100 173 208 186 206 234 249 281 232 233 230 227 238 240 240 238 234 227 220 219 219 223 230 235 238 237 234 230 224 221 221 227 221 224 237 217 220 210 201 204 211 228 248 265 288 303 314 324 325
143 209 205 321 191 205 228 260 216 205 223 229 231 240 246 238 234 225 217 216 221 227 233 237 235 231 224 221 219 214 218 217 217 224 224 215 204 198 201 208 218 228 250 272 292 312 323 325 324
201 203 201 195 207 237 25 255 197 238 275 279 277 275 267 255 238 229 218 217 222 228 233 234 229 224 218 212 205 209 211 211 217 217 213 199 199 200 205 212 223 234 256 283 311 320 323 324 323